Time,TemperatureF,DewpointF,PressureIn,WindDirection,WindDirectionDegrees,WindSpeedMPH,WindSpeedGustMPH,Humidity,HourlyPrecipIn,Conditions,Clouds,dailyrainin,SoftwareType,DateUTC
2013-06-07 00:03:00,69.0,68.0,29.75,SE,125,0.0,0.0,96,0.04,,,0.52,,2013-06-07 04:03:00,
2013-06-07 00:12:00,69.0,68.0,29.75,SE,125,0.0,0.0,96,0.04,,,0.52,,2013-06-07 04:12:00,
2013-06-07 00:23:00,69.0,68.0,29.74,SE,125,0.0,0.0,96,0.04,,,0.53,,2013-06-07 04:23:00,
2013-06-07 00:33:00,69.0,68.0,29.74,SE,125,0.0,0.0,96,0.04,,,0.54,,2013-06-07 04:33:00,
2013-06-07 00:42:00,69.0,68.0,29.74,SE,125,0.0,0.0,96,0.04,,,0.54,,2013-06-07 04:42:00,
2013-06-07 00:53:00,69.0,68.0,29.73,SE,125,0.0,0.0,96,0.04,,,0.55,,2013-06-07 04:53:00,
2013-06-07 01:03:00,69.0,68.0,29.73,SE,125,0.0,0.0,96,0.05,,,0.56,,2013-06-07 05:03:00,
2013-06-07 01:12:00,69.0,68.0,29.73,SE,125,0.0,0.0,96,0.05,,,0.56,,2013-06-07 05:12:00,
2013-06-07 01:22:00,69.0,68.0,29.72,SE,125,0.0,0.0,96,0.05,,,0.57,,2013-06-07 05:22:00,
2013-06-07 01:32:00,68.0,67.0,29.71,SE,125,0.0,0.0,96,0.06,,,0.55,,2013-06-07 05:32:00,
2013-06-07 01:42:00,68.0,67.0,29.71,SE,125,0.0,0.0,96,0.06,,,0.55,,2013-06-07 05:42:00,
2013-06-07 01:52:00,68.0,67.0,29.71,SE,125,0.0,0.0,96,0.07,,,0.56,,2013-06-07 05:52:00,
2013-06-07 02:02:00,68.0,67.0,29.70,SE,125,0.0,0.0,96,0.08,,,0.60,,2013-06-07 06:02:00,
2013-06-07 02:12:00,68.0,67.0,29.70,SE,125,0.0,0.0,96,0.08,,,0.60,,2013-06-07 06:12:00,
2013-06-07 02:22:00,68.0,67.0,29.69,SE,125,0.0,0.0,96,0.10,,,0.63,,2013-06-07 06:22:00,
2013-06-07 02:32:00,68.0,67.0,29.68,SE,125,0.0,0.0,96,0.09,,,0.64,,2013-06-07 06:32:00,
2013-06-07 02:42:00,68.0,67.0,29.68,SE,125,0.0,0.0,96,0.09,,,0.64,,2013-06-07 06:42:00,
2013-06-07 02:52:00,68.0,67.0,29.67,SE,125,0.0,0.0,96,0.08,,,0.65,,2013-06-07 06:52:00,
2013-06-07 03:02:00,68.0,67.0,29.66,SE,125,0.0,0.0,97,0.07,,,0.67,,2013-06-07 07:02:00,
2013-06-07 03:12:00,68.0,67.0,29.66,SE,125,0.0,0.0,97,0.07,,,0.67,,2013-06-07 07:12:00,
2013-06-07 03:22:00,68.0,67.0,29.65,SE,125,0.0,0.0,97,0.04,,,0.67,,2013-06-07 07:22:00,
2013-06-07 03:32:00,68.0,67.0,29.65,SE,125,0.0,0.0,97,0.02,,,0.65,,2013-06-07 07:32:00,
2013-06-07 03:42:00,68.0,67.0,29.65,SE,125,0.0,0.0,97,0.02,,,0.65,,2013-06-07 07:42:00,
2013-06-07 03:52:00,68.0,67.0,29.65,SE,125,0.0,1.0,97,0.01,,,0.65,,2013-06-07 07:52:00,
2013-06-07 04:02:00,68.0,67.0,29.64,SE,125,0.0,0.0,97,0.00,,,0.65,,2013-06-07 08:02:00,
2013-06-07 04:12:00,68.0,67.0,29.64,SE,125,0.0,0.0,97,0.00,,,0.65,,2013-06-07 08:12:00,
2013-06-07 04:22:00,68.0,67.0,29.63,SE,125,0.0,0.0,97,0.00,,,0.65,,2013-06-07 08:22:00,
2013-06-07 04:32:00,68.0,67.0,29.62,SE,125,0.0,0.0,97,0.00,,,0.44,,2013-06-07 08:32:00,
2013-06-07 04:43:00,68.0,67.0,29.62,SE,125,0.0,0.0,97,0.00,,,0.44,,2013-06-07 08:43:00,
2013-06-07 04:52:00,68.0,67.0,29.62,SE,125,0.0,0.0,97,0.00,,,0.44,,2013-06-07 08:52:00,
2013-06-07 05:02:00,68.0,67.0,29.62,South,180,0.0,1.0,97,0.00,,,0.44,,2013-06-07 09:02:00,
2013-06-07 05:12:00,68.0,67.0,29.62,South,180,0.0,1.0,97,0.00,,,0.44,,2013-06-07 09:12:00,
2013-06-07 05:22:00,68.0,67.0,29.62,South,186,0.0,1.0,97,0.00,,,0.44,,2013-06-07 09:22:00,
2013-06-07 05:32:00,68.0,67.0,29.61,South,186,0.0,0.0,97,0.00,,,0.42,,2013-06-07 09:32:00,
2013-06-07 05:43:00,68.0,67.0,29.61,South,186,0.0,0.0,97,0.00,,,0.42,,2013-06-07 09:43:00,
2013-06-07 05:53:00,68.0,67.0,29.61,South,186,0.0,1.0,97,0.01,,,0.43,,2013-06-07 09:53:00,
2013-06-07 06:03:00,68.0,67.0,29.62,South,186,0.0,0.0,97,0.02,,,0.44,,2013-06-07 10:03:00,
2013-06-07 06:13:00,68.0,67.0,29.62,South,186,0.0,0.0,97,0.02,,,0.44,,2013-06-07 10:13:00,
2013-06-07 06:23:00,68.0,67.0,29.62,South,186,0.0,1.0,97,0.04,,,0.46,,2013-06-07 10:23:00,
2013-06-07 06:33:00,68.0,67.0,29.62,South,186,0.0,0.0,97,0.05,,,0.47,,2013-06-07 10:33:00,
2013-06-07 06:42:00,68.0,67.0,29.62,South,186,0.0,0.0,97,0.05,,,0.47,,2013-06-07 10:42:00,
2013-06-07 06:52:00,68.0,67.0,29.62,South,186,0.0,0.0,97,0.05,,,0.48,,2013-06-07 10:52:00,
2013-06-07 07:02:00,68.0,67.0,29.62,WSW,238,0.0,0.0,97,0.04,,,0.48,,2013-06-07 11:02:00,
2013-06-07 07:12:00,68.0,67.0,29.62,WSW,238,0.0,0.0,97,0.04,,,0.48,,2013-06-07 11:12:00,
2013-06-07 07:22:00,68.0,67.0,29.62,WSW,238,0.0,2.0,97,0.03,,,0.49,,2013-06-07 11:22:00,
2013-06-07 07:32:00,68.0,67.0,29.62,West,263,0.0,3.0,97,0.03,,,0.49,,2013-06-07 11:32:00,
2013-06-07 07:42:00,68.0,67.0,29.62,West,263,0.0,3.0,97,0.03,,,0.49,,2013-06-07 11:42:00,
2013-06-07 07:52:00,68.0,67.0,29.62,West,263,0.0,0.0,97,0.04,,,0.51,,2013-06-07 11:52:00,
2013-06-07 08:02:00,68.0,67.0,29.62,NW,315,0.0,1.0,97,0.05,,,0.53,,2013-06-07 12:02:00,
2013-06-07 08:13:00,68.0,67.0,29.62,NW,315,0.0,1.0,97,0.05,,,0.53,,2013-06-07 12:13:00,
2013-06-07 08:22:00,68.0,67.0,29.62,NW,316,2.0,4.0,97,0.06,,,0.54,,2013-06-07 12:22:00,
2013-06-07 08:32:00,68.0,67.0,29.62,NW,317,0.0,1.0,97,0.06,,,0.54,,2013-06-07 12:32:00,
2013-06-07 08:42:00,68.0,67.0,29.62,NW,317,0.0,1.0,97,0.06,,,0.54,,2013-06-07 12:42:00,
2013-06-07 08:52:00,68.0,67.0,29.63,NW,317,0.0,2.0,97,0.04,,,0.54,,2013-06-07 12:52:00,
2013-06-07 09:02:00,68.0,67.0,29.63,NW,317,0.0,1.0,97,0.02,,,0.54,,2013-06-07 13:02:00,
2013-06-07 09:13:00,68.0,67.0,29.63,NW,317,0.0,1.0,97,0.02,,,0.54,,2013-06-07 13:13:00,
2013-06-07 09:22:00,68.0,67.0,29.64,WNW,291,0.0,3.0,98,0.02,,,0.55,,2013-06-07 13:22:00,
2013-06-07 09:32:00,68.0,67.0,29.64,WNW,291,0.0,3.0,98,0.01,,,0.54,,2013-06-07 13:32:00,
2013-06-07 09:43:00,68.0,67.0,29.64,WNW,291,0.0,3.0,98,0.01,,,0.54,,2013-06-07 13:43:00,
2013-06-07 09:52:00,69.0,68.0,29.65,WNW,291,0.0,2.0,98,0.01,,,0.54,,2013-06-07 13:52:00,
2013-06-07 10:03:00,69.0,68.0,29.65,WNW,291,0.0,2.0,98,0.01,,,0.54,,2013-06-07 14:03:00,
2013-06-07 10:13:00,69.0,68.0,29.65,WNW,291,0.0,2.0,98,0.01,,,0.54,,2013-06-07 14:13:00,
2013-06-07 10:23:00,69.0,68.0,29.65,WNW,291,0.0,3.0,98,0.01,,,0.55,,2013-06-07 14:23:00,
2013-06-07 10:33:00,69.0,68.0,29.65,WNW,291,0.0,3.0,98,0.01,,,0.55,,2013-06-07 14:33:00,
2013-06-07 10:42:00,69.0,68.0,29.65,WNW,291,0.0,3.0,98,0.01,,,0.55,,2013-06-07 14:42:00,
2013-06-07 10:52:00,69.0,68.0,29.65,West,281,1.0,5.0,98,0.01,,,0.55,,2013-06-07 14:52:00,
2013-06-07 11:03:00,70.0,69.0,29.65,West,270,3.0,7.0,98,0.01,,,0.55,,2013-06-07 15:03:00,
2013-06-07 11:12:00,70.0,69.0,29.65,West,270,3.0,7.0,98,0.01,,,0.55,,2013-06-07 15:12:00,
2013-06-07 11:23:00,70.0,69.0,29.65,West,262,2.0,6.0,98,0.00,,,0.55,,2013-06-07 15:23:00,
2013-06-07 11:33:00,71.0,70.0,29.65,West,269,1.0,5.0,97,0.00,,,0.55,,2013-06-07 15:33:00,
2013-06-07 11:43:00,71.0,70.0,29.65,West,269,1.0,5.0,97,0.00,,,0.55,,2013-06-07 15:43:00,
2013-06-07 11:53:00,71.0,69.0,29.65,WSW,247,3.0,9.0,95,0.00,,,0.55,,2013-06-07 15:53:00,
2013-06-07 12:03:00,72.0,70.0,29.66,West,263,4.0,7.0,94,0.00,,,0.55,,2013-06-07 16:03:00,
2013-06-07 12:13:00,72.0,70.0,29.66,West,263,4.0,7.0,94,0.00,,,0.55,,2013-06-07 16:13:00,
2013-06-07 12:22:00,72.0,70.0,29.66,WSW,252,3.0,10.0,92,0.00,,,0.55,,2013-06-07 16:22:00,
2013-06-07 12:33:00,73.0,70.0,29.67,West,273,4.0,8.0,91,0.00,,,0.55,,2013-06-07 16:33:00,
2013-06-07 12:43:00,73.0,70.0,29.67,West,273,4.0,8.0,91,0.00,,,0.55,,2013-06-07 16:43:00,
2013-06-07 12:53:00,74.0,71.0,29.67,WSW,257,2.0,8.0,90,0.00,,,0.55,,2013-06-07 16:53:00,
2013-06-07 13:03:00,74.0,70.0,29.67,SW,219,3.0,9.0,88,0.00,,,0.55,,2013-06-07 17:03:00,
2013-06-07 13:13:00,74.0,70.0,29.67,SW,219,3.0,9.0,88,0.00,,,0.55,,2013-06-07 17:13:00,
2013-06-07 13:23:00,75.0,71.0,29.67,WNW,285,2.0,10.0,88,0.00,,,0.55,,2013-06-07 17:23:00,
2013-06-07 13:32:00,76.0,72.0,29.67,WNW,284,4.0,8.0,86,0.00,,,0.55,,2013-06-07 17:32:00,
2013-06-07 13:43:00,76.0,72.0,29.67,WNW,284,4.0,8.0,86,0.00,,,0.55,,2013-06-07 17:43:00,
2013-06-07 13:52:00,76.0,71.0,29.66,West,267,5.0,9.0,84,0.00,,,0.55,,2013-06-07 17:52:00,
2013-06-07 14:10:00,78.0,72.0,29.66,WSW,242,3.0,11.0,81,0.00,,,0.55,,2013-06-07 18:10:00,
2013-06-07 14:20:00,78.0,72.0,29.66,WSW,242,3.0,11.0,81,0.00,,,0.55,,2013-06-07 18:20:00,
2013-06-07 14:27:00,79.0,72.0,29.66,SW,229,5.0,11.0,78,0.00,,,0.55,,2013-06-07 18:27:00,
2013-06-07 14:37:00,80.0,71.0,29.66,West,263,3.0,12.0,75,0.00,,,0.44,,2013-06-07 18:37:00,
2013-06-07 14:45:00,80.0,71.0,29.66,West,263,3.0,12.0,75,0.00,,,0.44,,2013-06-07 18:45:00,
2013-06-07 14:56:00,82.0,73.0,29.66,SSW,205,5.0,10.0,74,0.00,,,0.44,,2013-06-07 18:56:00,
2013-06-07 15:08:00,82.0,72.0,29.65,SSW,202,3.0,12.0,71,0.00,,,0.44,,2013-06-07 19:08:00,
2013-06-07 15:15:00,82.0,72.0,29.65,SSW,202,3.0,12.0,71,0.00,,,0.44,,2013-06-07 19:15:00,
2013-06-07 15:29:00,83.0,72.0,29.65,WSW,241,5.0,9.0,70,0.00,,,0.44,,2013-06-07 19:29:00,
2013-06-07 15:38:00,82.0,71.0,29.64,SW,219,5.0,13.0,69,0.00,,,0.43,,2013-06-07 19:38:00,
2013-06-07 15:49:00,82.0,71.0,29.64,SW,219,5.0,13.0,69,0.00,,,0.43,,2013-06-07 19:49:00,
2013-06-07 15:55:00,84.0,72.0,29.64,SW,229,4.0,10.0,68,0.00,,,0.43,,2013-06-07 19:55:00,
2013-06-07 16:08:00,84.0,71.0,29.64,South,186,4.0,11.0,65,0.00,,,0.43,,2013-06-07 20:08:00,
2013-06-07 16:17:00,84.0,71.0,29.64,South,186,4.0,11.0,65,0.00,,,0.43,,2013-06-07 20:17:00,
2013-06-07 16:27:00,85.0,72.0,29.64,West,263,4.0,11.0,66,0.00,,,0.43,,2013-06-07 20:27:00,
2013-06-07 16:39:00,85.0,73.0,29.64,West,265,4.0,9.0,68,0.00,,,0.43,,2013-06-07 20:39:00,
2013-06-07 16:48:00,85.0,73.0,29.64,West,265,4.0,9.0,68,0.00,,,0.43,,2013-06-07 20:48:00,
2013-06-07 16:56:00,85.0,72.0,29.64,SW,234,5.0,15.0,65,0.00,,,0.43,,2013-06-07 20:56:00,
2013-06-07 17:07:00,85.0,71.0,29.64,SW,231,5.0,13.0,64,0.00,,,0.43,,2013-06-07 21:07:00,
2013-06-07 17:41:00,80.0,71.0,29.67,West,265,8.0,19.0,74,0.07,,,0.50,,2013-06-07 21:41:00,
2013-06-07 17:56:00,75.0,70.0,29.65,WSW,249,0.0,7.0,84,0.11,,,0.54,,2013-06-07 21:56:00,
2013-06-07 18:09:00,74.0,70.0,29.66,West,261,0.0,4.0,87,0.12,,,0.55,,2013-06-07 22:09:00,
2013-06-07 18:28:00,73.0,70.0,29.66,SSW,205,0.0,4.0,89,0.12,,,0.55,,2013-06-07 22:28:00,
2013-06-07 18:39:00,74.0,70.0,29.67,SSW,194,4.0,7.0,88,0.04,,,0.55,,2013-06-07 22:39:00,
2013-06-07 18:48:00,74.0,70.0,29.67,SSW,194,4.0,7.0,88,0.04,,,0.55,,2013-06-07 22:48:00,
2013-06-07 18:56:00,75.0,70.0,29.67,South,188,1.0,4.0,85,0.01,,,0.55,,2013-06-07 22:56:00,
2013-06-07 19:10:00,75.0,69.0,29.67,ENE,65,0.0,2.0,83,0.00,,,0.55,,2013-06-07 23:10:00,
2013-06-07 19:19:00,75.0,69.0,29.67,ENE,65,0.0,2.0,83,0.00,,,0.55,,2013-06-07 23:19:00,
2013-06-07 19:39:00,75.0,71.0,29.67,ENE,65,0.0,0.0,87,0.00,,,0.55,,2013-06-07 23:39:00,
2013-06-07 19:51:00,75.0,71.0,29.67,ENE,65,0.0,0.0,87,0.00,,,0.55,,2013-06-07 23:51:00,
2013-06-07 20:14:00,74.0,70.0,29.69,SSW,211,0.0,2.0,88,0.00,,,0.55,,2013-06-08 00:14:00,
2013-06-07 20:30:00,74.0,71.0,29.70,WNW,285,2.0,8.0,89,0.00,,,0.55,,2013-06-08 00:30:00,
2013-06-07 20:35:00,73.0,70.0,29.71,SW,231,1.0,8.0,90,0.00,,,0.55,,2013-06-08 00:35:00,
2013-06-07 20:45:00,73.0,70.0,29.71,SW,231,1.0,8.0,90,0.00,,,0.55,,2013-06-08 00:45:00,
2013-06-07 20:56:00,73.0,69.0,29.72,West,273,2.0,15.0,87,0.00,,,0.55,,2013-06-08 00:56:00,
2013-06-07 21:08:00,72.0,68.0,29.72,WSW,244,1.0,6.0,87,0.00,,,0.55,,2013-06-08 01:08:00,
2013-06-07 21:19:00,72.0,68.0,29.72,WSW,244,1.0,6.0,87,0.00,,,0.55,,2013-06-08 01:19:00,
2013-06-07 21:29:00,72.0,68.0,29.72,West,275,0.0,2.0,88,0.00,,,0.55,,2013-06-08 01:29:00,
2013-06-07 21:39:00,72.0,69.0,29.72,NW,304,0.0,3.0,89,0.00,,,0.55,,2013-06-08 01:39:00,
2013-06-07 21:46:00,72.0,69.0,29.72,NW,304,0.0,3.0,89,0.00,,,0.55,,2013-06-08 01:46:00,
2013-06-07 21:57:00,71.0,68.0,29.74,NW,304,0.0,1.0,90,0.00,,,0.55,,2013-06-08 01:57:00,
2013-06-07 22:11:00,71.0,69.0,29.74,NW,304,0.0,0.0,92,0.00,,,0.55,,2013-06-08 02:11:00,
2013-06-07 22:29:00,70.0,68.0,29.75,NW,304,0.0,0.0,92,0.00,,,0.55,,2013-06-08 02:29:00,
2013-06-07 22:37:00,70.0,68.0,29.75,NW,304,0.0,0.0,93,0.00,,,0.52,,2013-06-08 02:37:00,
2013-06-07 23:11:00,70.0,68.0,29.78,SW,225,0.0,4.0,95,0.00,,,0.52,,2013-06-08 03:11:00,
2013-06-07 23:18:00,70.0,68.0,29.78,SW,225,0.0,4.0,95,0.00,,,0.52,,2013-06-08 03:18:00,
2013-06-07 23:27:00,70.0,68.0,29.78,SSW,196,1.0,5.0,95,0.00,,,0.52,,2013-06-08 03:27:00,
2013-06-07 23:38:00,69.0,68.0,29.78,SSW,194,0.0,2.0,95,0.00,,,0.51,,2013-06-08 03:38:00,
2013-06-07 23:52:00,69.0,68.0,29.78,SSW,194,0.0,2.0,95,0.00,,,0.51,,2013-06-08 03:52:00,